FENGYUN 1C DEB

Satellite information

Favourite Embed

Satellite Type and Status

DEBRISIN ORBIT

Key statistics

Satellite FENGYUN 1C DEB at a glance.

Uptime

9493

Days in orbit

Revolutions

≈ 14.5

Per day

Orbit

SSO

Sun Synchronous Orbit

Inclination

99.0

Latest

Satellite identification and parameters

Extended collection of information and parameters for FENGYUN 1C DEB.

Object identification

Identified? True

Debris? True

Object name: FENGYUN 1C DEB

International designator: 1999-025CTX

Object number (NORAD): 32177

Object ID (CCSDS): 32177

Country: PEOPLES REPUBLIC OF CHINA (PRC)

Current information (Y/N): Y

RCS size: SMALL

Orbital parameters

Period: 99.082 minutes

Inclination: 99.0414 deg

SMA: 7092.889 km

Apoapsis: 752.881 km

Periapsis: 676.627 km

RAAN: 117.2775 deg

Eccentricy: 0.0053754

Argument of periapsis: 353.3402 deg

Mean anomaly: 6.7071 deg

Mean motion: 14.53342676 rev/day

Mean motion (dot): 0.00008876 rev/day2

B* drag term: 0.0021054 1/REarth

Two-line elements (TLE)

Creation date: May 6, 2025, 3:54 a.m.

Reference frame: TEME

Reference center: EARTH

Epoch: May 5, 2025, 7:53 p.m. UTC

TLE line 0: 0 FENGYUN 1C DEB

TLE line 1: 1 32177U 99025CTX 25125.82854702 .00008876 00000-0 21054-2 0 9999

TLE line 2: 2 32177 99.0414 117.2775 0053754 353.3402 6.7071 14.53342676678275

Live tracking on map

Real-time ground track for satellite FENGYUN 1C DEB.

In-orbit conjunctions

A list of the most updated potential collisions computed for object FENGYUN 1C DEB.

Target Orbit TCA Probability of collision Miss distance Type
TRIAD 1 LEO 2025-03-25 10:01:35 0.0002527052 129.0 (m) PAYLOAD

Associated space launch

Chinese polar orbiting meteorological satellite

FENGYUN 1C DEB was lifted into orbit during the mission ‘Long March 4B | Feng Yun 1C’, on board a Long March 4B space rocket.

The launch took place on May 10, 1999, 1:33 a.m. from Launch Complex 7.

For more information about the launch, click the button.

Launch to space Long March 4B | Feng Yun 1C
Long March 4B | Feng Yun 1C

Agency: N/A

Status: Launch Successful

Launch date: May 10, 1999, 1:33 a.m. UTC

Rocket: Long March 4B

Launch pad: Launch Complex 7

Location: Taiyuan Satellite Launch Center, People's Republic of China

...

Latest news about this satellite

There are no fresh news available about this satellite. Check back as we update our databases every day.


Newsletter sign-up

Weekly statistics, charts and insights to help you stay on top of the space industry.